544  
ASUS45 KTFX 200610  
RWRMT  
MONTANA REGIONAL WEATHER ROUNDUP  
NATIONAL WEATHER SERVICE GREAT FALLS MT  
1200 AM MDT WED OCT 20 2021  
 
NOTE: "FAIR" INDICATES FEW OR NO CLOUDS BELOW 12,000 FEET WITH NO  
SIGNIFICANT WEATHER AND/OR S TO VISIBILITY
.  
 
MTZ001>007-043-200700-  
WEST OF THE DIVIDE  
 
CITY SKY/WX TMP DP RH WIND PRES REMARKS
 
KALISPELL CLEAR 34 28 79 CALM 29.98S  
MISSOULA CLEAR 54 30 40 SE20 29.98F  
BUTTE CLEAR 41 29 62 S6G18 30.12F  
ANACONDA N/A 34 27 75 SW5 30.11 WCI 30  
DEER LODGE N/A 34 28 80 SE3 30.14S  
HAMILTON FAIR 36 28 75 S5 30.01S WCI 32  
MULLAN PASS CLEAR 44 26 49 SE8 29.99S  

 
 
MTZ008-052>055-200700-  
SOUTHWEST MONTANA  
 
CITY SKY/WX TMP DP RH WIND PRES REMARKS
 
BOZEMAN CLEAR 32 29 88 SE6 30.14F WCI 26  
DILLON CLEAR 37 30 75 S7 30.11S WCI 32  
ENNIS CLEAR 30 27 86 NE5 30.18S WCI 25  
THREE FORKS N/A 34 27 75 CALM 30.12S  
TWIN BRIDGES N/A 41 32 70 NE16 30.13F  
W YELLOWSTONE CLEAR 27 27 100 CALM 30.16R  

 
 
MTZ009-010-012-014-046-048-049-054-200700-  
EAST SLOPES AND CENTRAL MONTANA  
 
CITY SKY/WX TMP DP RH WIND PRES REMARKS
 
CUT BANK CLEAR 32 28 85 SE9 30.13F WCI 24  
GREAT FALLS CLEAR 34 29 82 S3 30.13F  
HELENA CLEAR 40 30 67 W6 30.12S  
MALMSTROM AFB CLEAR 34 29 80 N3 30.15F  
BOWMANS CORNER FAIR 32 29 91 CALM 30.11F  
CHOTEAU N/A 28 27 93 CALM 30.13S  
POWER FAIR 31 26 79 E9 30.12F WCI 23  
RAYNESFORD FAIR 38 26 62 SE17 30.15F WCI 28  
ULM FAIR 29 27 90 CALM 30.13F  

 
 
MTZ011-013-016-021-045-047-050-051-200700-  
NORTH CENTRAL MONTANA  
 
CITY SKY/WX TMP DP RH WIND PRES REMARKS
 
HAVRE CLEAR 38 26 62 E15 30.20F WCI 29  
LEWISTOWN PTCLDY 33 27 78 SE13 30.19F WCI 24  
DENTON FAIR N/A N/A N/A S6 N/A  
FORT BENTON N/A 41 27 56 NE12G18 30.17F  
GRASS RANGE FAIR 26 26 100 CALM 30.21F  
N BAR RANCH FOG 27 25 93 NW3 30.25F VSB<1/4  
ROY FAIR 34 29 82 S16 30.22F WCI 24  
WINIFRED FAIR 33 28 80 E14 30.19F WCI 24  

 
 
MTZ017>020-022>027-061-062-200700-  
NORTHEAST MONTANA  
 
CITY SKY/WX TMP DP RH WIND PRES REMARKS
 
GLASGOW CLEAR 28 20 71 SE9 30.31S WCI 19  
GLENDIVE CLEAR 30 27 88 N8 30.29F WCI 22  
JORDAN N/A 24 20 84 CALM 30.30R  
MALTA CLEAR 32 19 59 NE9 30.29S WCI 24  
PLENTYWOOD CLEAR 23 19 86 NE10 30.33S WCI 12  
POPLAR N/A 27 19 74 N5 30.33R WCI 21  
SIDNEY CLEAR 31 25 78 N5 30.32R WCI 26  
WOLF POINT CLEAR 27 20 75 NE5 30.34R WCI 22  

 
 
MTZ028>42-056>058-200700-  
SOUTHCENTRAL AND SOUTHEAST MONTANA  
 
CITY SKY/WX TMP DP RH WIND PRES REMARKS
 
BAKER MOCLDY 33 26 75 NE3 30.26R  
BIG TIMBER CLOUDY 36 34 93 E9 30.24F WCI 29  
BILLINGS CLOUDY 38 32 79 E7 30.26F WCI 33  
HARDIN PTCLDY 32 30 93 NW6 30.27S WCI 26  
HARLOWTON CLOUDY 33 31 94 SE7 30.25S WCI 27  
LAUREL N/A 37 34 87 E6 30.27F WCI 33  
LIVINGSTON CLOUDY 37 33 85 E12 30.21S WCI 29  
MILES CITY PTCLDY 31 28 89 NW6 30.28S WCI 25  

 
 
REGIONAL REPORTS...DAKOTAS/MN  
 
CITY SKY/WX TMP DP RH WIND PRES REMARKS
 
WILLISTON CLEAR 30 23 75 NE8 30.31S WCI 22  
MINOT PTCLDY 34 28 79 N9 30.29S WCI 27  
DICKINSON CLOUDY 36 30 79 NE12 30.22S WCI 28  
BEACH CLOUDY 28 28 100 N5 30.28S WCI 23  
BOWMAN CLOUDY 36 34 93 NE12 30.21F WCI 27  
CROSBY FAIR 21 21 100 CALM 30.34S  
GLEN ULLIN CLOUDY 37 28 70 NE16G22 30.23S WCI 28  
HETTINGER CLOUDY 39 31 72 N14 30.19F WCI 31  
TIOGA MOCLDY 28 28 100 E8 30.32R WCI 20  
WATFORD CITY FAIR 27 27 100 N3 30.31S  
BISMARCK CLOUDY 40 32 73 N13 30.22F WCI 32  
GRAND FORKS CLOUDY 42 32 67 N17 30.18R  
FARGO CLOUDY 46 39 76 N15G25 30.11R  
BUFFALO SD N/A 37 30 75 N16 30.17F WCI 28  
RAPID CITY LGT SNOW 34 33 96 N14 30.14R FOG WCI 25  
INTL FALLS CLOUDY 45 34 65 NE13 30.15R  
DULUTH CLEAR 49 45 86 N12 30.03R  
MINNEAPOLIS PTCLDY 58 47 66 CALM 29.95R  

 
 
REGIONAL REPORTS...WY/CO/ID/WA/OR  
 
CITY SKY/WX TMP DP RH WIND PRES REMARKS
 
BUFFALO WY FOG 33 33 100 N13 30.22S VSB 1/4 WCI 24  
CODY FOG 33 32 96 NE3 30.24F VSB 1/2  
GILLETTE CLOUDY 33 32 96 N13 30.20S WCI 24  
POWELL FOG 32 30 93 W17 30.21F VSB 1/4 WCI 21  
SHERIDAN CLOUDY 37 33 85 N6 30.25F WCI 32  
YELLOWSTONE LA N/A 26 24 92 CALM 30.21S  
BOISE MOCLDY 56 33 42 SE8 29.94R  
COUER D'ALENE CLEAR 48 35 60 NE8 29.87S  
IDAHO FALLS CLOUDY 43 38 82 CALM 30.15R  
SALMON CLEAR 41 30 65 S3 30.04R  
SPOKANE PTCLDY 53 35 50 E9 29.83F  
SEATTLE MOCLDY 55 45 68 N8 29.62F  
PORTLAND CLOUDY 54 49 83 W7 29.62R  

 
 
OTHER REPORTS  
 
CITY SKY/WX TMP DP RH WIND PRES REMARKS
 
ATLANTA MOCLDY 57 48 72 CALM 30.23F  
ANCHORAGE LGT RAIN 40 33 76 NW12 29.08R WCI 33  
BOSTON PTCLDY 54 40 59 SW8 29.81S  
CHICAGO MOCLDY 57 45 64 S7 30.07S  
FAIRBANKS MOCLDY 29 22 75 N3 29.17F  
HOUSTON PTCLDY 69 64 84 SE6 30.07S  
LAS VEGAS NV PTCLDY 57 24 28 CALM 30.07R  
PHOENIX AZ CLEAR 69 41 36 E5 29.98R  
SALT LAKE CITY PTCLDY 39 37 92 SE7 30.16F WCI 34  
SAN DIEGO PTCLDY 59 50 72 CALM 30.08R  
SAN FRANCISCO MOCLDY 61 38 42 S13 29.97R  
WASHINGTON DUL PTCLDY 55 44 66 CALM 30.12F  

 
 
REGIONAL REPORTS...ALBERTA  
 
CITY SKY/WX TMP DP RH WIND PRES REMARKS
 
CALGARY CLEAR 36 32 87 S10 30.05F WCI 28  
CARDSTON N/A 37 32 81 S12G17 N/A WCI 30  
CROWSNEST PASS N/A 23 21 93 CALM N/A  
DEL BONITA N/A 34 32 93 SE18 N/A WCI 23  
EDMONTON CLEAR 37 25 60 S13 30.07F WCI 29  
FORT MCMURRAY CLEAR 34 23 64 SE10 30.18F WCI 26  
HIGH LEVEL CLOUDY 39 32 75 SE8 29.99F WCI 34  
LETHBRIDGE CLEAR 39 32 75 SE14G21 30.10F WCI 31  
MEDICINE HAT CLEAR 37 21 52 VRB7 30.16F WCI 32  
MILK RIVER N/A 37 28 70 S20 N/A WCI 27  
PINCHER CREEK CLEAR 27 25 93 W8 30.07F WCI 18  
RAYMOND N/A 41 30 65 S7 N/A  
WATERTON GATE N/A 21 19 93 CALM N/A  
FORT SMITH NWT CLOUDY 37 28 70 SE10G17 30.15F WCI 30  

 
 
REGIONAL REPORTS...SASKATCHEWAN  
 
CITY SKY/WX TMP DP RH WIND PRES REMARKS
 
ASSINIBOIA N/A 21 16 79 SE7 N/A WCI 13  
CORONACH N/A 23 18 80 SE3 N/A  
CYPRESS HILLS N/A 28 16 59 SE12 N/A WCI 18  
ESTEVAN CLEAR 21 19 93 NE7 30.34S WCI 13  
MOOSE JAW N/A 21 18 86 E1 N/A  
PRINCE ALBERT MOCLDY 19 16 86 E2 30.40F  
REGINA CLEAR 28 21 74 E7 30.36S WCI 21  
ROCKGLEN N/A 27 19 74 SE5 N/A WCI 21  
SASKATOON CLEAR 27 19 74 E7 30.36S WCI 19  
SWIFT CURRENT CLEAR 23 16 74 SE10 30.27F WCI 12  
VAL MARIE N/A 30 16 55 SE6 N/A WCI 24  

 
 
 
CLICK HERE TO GO TO PREVIOUS BULLETINS.

The Nexlab MT Page Main Text Page